Location: ???????????
(54.5822°N, 39.1075°E)
Time: 03:55:45
(UTC+00:00)

Cosmos 2058 Rocket - Pass Details

Date: 19 May 2025
Orbit: 604 x 634 km, 82.5° (Epoch: 19 June)

Event Time Altitude Azimuth Distance (km) Brightness Sun altitude
Rises 19:01:44 0° 210° (SSW) 2,920 6.2 -9.8°
Reaches altitude 10° 19:04:04 10° 217° (SW) 2,014 5.5 -10.0°
Maximum altitude 19:08:19 42° 289° (WNW) 908 4.4 -10.3°
Drops below altitude 10° 19:12:35 10° 1° (N) 2,015 6.7 -10.6°
Sets 19:14:55 0° 8° (N) 2,922 7.4 -10.8°
